| time (UTC) | temp F | wind direction | speed MPH | gust MPH | rain 1hr in | rain 24hr in | rain mn in | humidity % | barometer mb |
| 20260506201506 | 59 | 50 | 1.0 | 3.0 | 0.00 | 0.11 | 0.11 | 59 | |
| 20260506200005 | 59 | 350 | 0.0 | 2.0 | 0.00 | 0.11 | 0.11 | 61 | |
| 20260506194506 | 58 | 350 | 1.0 | 3.0 | 0.00 | 0.11 | 0.11 | 61 | |
| 20260506193010 | 57 | 350 | 0.0 | 3.0 | 0.00 | 0.11 | 0.11 | 61 | |
| 20260506191514 | 57 | 40 | 0.0 | 3.0 | 0.00 | 0.11 | 0.11 | 62 | |
| 20260506190016 | 57 | 42 | 0.0 | 2.0 | 0.00 | 0.11 | 0.11 | 63 | |
| 20260506184519 | 56 | 6 | 0.0 | 4.0 | 0.00 | 0.11 | 0.11 | 63 | |
| 20260506183030 | 56 | 60 | 1.0 | 6.0 | 0.00 | 0.11 | 0.11 | 65 | |
| 20260506181527 | 56 | 37 | 1.0 | 4.0 | 0.00 | 0.11 | 0.11 | 66 | |
| 20260506180035 | 55 | 19 | 0.0 | 5.0 | 0.00 | 0.11 | 0.11 | 66 | |
| 20260506174539 | 55 | 66 | 1.0 | 5.0 | 0.00 | 0.11 | 0.11 | 67 | |
| 20260506173038 | 54 | 53 | 0.0 | 4.0 | 0.00 | 0.11 | 0.11 | 66 | |
| 20260506171537 | 54 | 60 | 0.0 | 5.0 | 0.00 | 0.11 | 0.11 | 66 | |
| 20260506170041 | 54 | 58 | 1.0 | 5.0 | 0.00 | 0.11 | 0.11 | 66 | |
| 20260506164538 | 54 | 53 | 0.0 | 3.0 | 0.00 | 0.11 | 0.11 | 66 | |
| 20260506163048 | 54 | 316 | 0.0 | 2.0 | 0.00 | 0.11 | 0.11 | 65 | |
| 20260506161542 | 54 | 100 | 0.0 | 3.0 | 0.02 | 0.11 | 0.11 | 65 | |
| 20260506160044 | 54 | 37 | 0.0 | 3.0 | 0.10 | 0.11 | 0.11 | 65 | |
| 20260506154546 | 54 | 23 | 1.0 | 3.0 | 0.11 | 0.11 | 0.11 | 64 | |
| 20260506153047 | 54 | 31 | 0.0 | 2.0 | 0.11 | 0.11 | 0.11 | 64 | |
| 20260506151548 | 54 | 46 | 0.0 | 4.0 | 0.09 | 0.09 | 0.09 | 63 | |
| 20260506150050 | 54 | 262 | 0.0 | 4.0 | 0.01 | 0.01 | 0.01 | 62 | |
| 20260506144602 | 54 | 73 | 0.0 | 1.0 | 0.00 | 0.00 | 0.00 | 62 | |
| 20260506143108 | 54 | 65 | 0.0 | 5.0 | 0.00 | 0.00 | 0.00 | 62 | |
| 20260506141558 | 54 | 342 | 0.0 | 4.0 | 0.00 | 0.00 | 0.00 | 62 | |
| 20260506140002 | 53 | 356 | 0.0 | 3.0 | 0.00 | 0.00 | 0.00 | 62 | |
| 20260506134504 | 53 | 58 | 0.0 | 3.0 | 0.00 | 0.00 | 0.00 | 61 | |
| 20260506133008 | 53 | 127 | 0.0 | 3.0 | 0.00 | 0.00 | 0.00 | 61 | |
| 20260506131512 | 53 | 45 | 1.0 | 4.0 | 0.00 | 0.00 | 0.00 | 61 | |
| 20260506130013 | 54 | 60 | 1.0 | 5.0 | 0.00 | 0.00 | 0.00 | 60 | |
| 20260506124512 | 54 | 71 | 1.0 | 4.0 | 0.00 | 0.00 | 0.00 | 59 | |
| 20260506123011 | 54 | 74 | 1.0 | 4.0 | 0.00 | 0.00 | 0.00 | 58 | |
| 20260506121510 | 55 | 33 | 0.0 | 4.0 | 0.00 | 0.00 | 0.00 | 57 | |
| 20260506120007 | 55 | 229 | 0.0 | 7.0 | 0.00 | 0.00 | 0.00 | 56 | |
| 20260506114506 | 55 | 280 | 1.0 | 5.0 | 0.00 | 0.00 | 0.00 | 56 | |
| 20260506113016 | 55 | 48 | 0.0 | 5.0 | 0.00 | 0.00 | 0.00 | 56 | |
| 20260506111510 | 56 | 258 | 1.0 | 6.0 | 0.00 | 0.00 | 0.00 | 56 | |
| 20260506110013 | 56 | 57 | 1.0 | 3.0 | 0.00 | 0.00 | 0.00 | 56 | |
| 20260506104513 | 56 | 58 | 2.0 | 7.0 | 0.00 | 0.00 | 0.00 | 56 | |
| 20260506103014 | 57 | 109 | 1.0 | 3.0 | 0.00 | 0.00 | 0.00 | 56 | |
| 20260506101519 | 57 | 54 | 1.0 | 4.0 | 0.00 | 0.00 | 0.00 | 56 | |
| 20260506100016 | 57 | 242 | 1.0 | 4.0 | 0.00 | 0.00 | 0.00 | 56 | |
| 20260506094520 | 57 | 70 | 0.0 | 4.0 | 0.00 | 0.00 | 0.00 | 56 | |
| 20260506093018 | 58 | 359 | 0.0 | 3.0 | 0.00 | 0.00 | 0.00 | 56 | |
| 20260506091519 | 58 | 29 | 1.0 | 4.0 | 0.00 | 0.00 | 0.00 | 56 | |
| 20260506090024 | 59 | 60 | 0.0 | 2.0 | 0.00 | 0.00 | 0.00 | 57 | |
| 20260506084520 | 59 | 205 | 0.0 | 3.0 | 0.00 | 0.00 | 0.00 | 57 | |
| 20260506083015 | 59 | 31 | 1.0 | 3.0 | 0.00 | 0.00 | 0.00 | 57 | |
| 20260506081513 | 59 | 273 | 0.0 | 2.0 | 0.00 | 0.00 | 0.00 | 57 | |
| 20260506073017 | 60 | 63 | 0.0 | 3.0 | 0.00 | 0.00 | 0.00 | 57 | |
| 20260506071519 | 60 | 64 | 0.0 | 2.0 | 0.00 | 0.00 | 0.00 | 58 | |
| 20260506061542 | 61 | 19 | 0.0 | 3.0 | 0.00 | 0.00 | 0.00 | 58 | |
| 20260506044530 | 64 | 309 | 0.0 | 3.0 | 0.00 | 0.00 | 0.00 | 57 | |
| 20260506043037 | 64 | 249 | 1.0 | 5.0 | 0.00 | 0.00 | 0.00 | 56 | |
| 20260506041534 | 65 | 231 | 0.0 | 4.0 | 0.00 | 0.00 | 0.00 | 56 | |
| 20260506040032 | 66 | 345 | 0.0 | 5.0 | 0.00 | 0.00 | 0.00 | 55 | |
| 20260506034532 | 66 | 298 | 1.0 | 3.0 | 0.00 | 0.00 | 0.00 | 54 | |
| 20260506033026 | 67 | 238 | 1.0 | 4.0 | 0.00 | 0.00 | 0.00 | 54 | |
| 20260506031536 | 68 | 52 | 1.0 | 4.0 | 0.00 | 0.00 | 0.00 | 54 | |
| 20260506030030 | 68 | 342 | 1.0 | 4.0 | 0.00 | 0.00 | 0.00 | 54 | |
| 20260506024540 | 69 | 80 | 1.0 | 3.0 | 0.00 | 0.00 | 0.00 | 53 | |
| 20260506023025 | 69 | 62 | 1.0 | 4.0 | 0.00 | 0.00 | 0.00 | 52 | |
| 20260506021526 | 70 | 62 | 1.0 | 5.0 | 0.00 | 0.00 | 0.00 | 51 | |
| 20260506020026 | 70 | 57 | 1.0 | 5.0 | 0.00 | 0.00 | 0.00 | 51 | |
| 20260506014530 | 71 | 39 | 1.0 | 4.0 | 0.00 | 0.00 | 0.00 | 50 | |
| 20260506013024 | 72 | 24 | 0.0 | 3.0 | 0.00 | 0.00 | 0.00 | 50 | |
| 20260506011532 | 73 | 51 | 0.0 | 4.0 | 0.00 | 0.00 | 0.00 | 50 | |
| 20260506010034 | 74 | 61 | 0.0 | 5.0 | 0.00 | 0.00 | 0.00 | 49 | |
| 20260506004539 | 75 | 77 | 1.0 | 4.0 | 0.00 | 0.00 | 0.00 | 48 | |
| 20260506003046 | 76 | 34 | 1.0 | 5.0 | 0.00 | 0.00 | 0.00 | 47 | |
| 20260506001551 | 78 | 60 | 0.0 | 3.0 | 0.00 | 0.00 | 0.00 | 46 | |
| 20260506000054 | 79 | 59 | 1.0 | 5.0 | 0.00 | 0.00 | 0.00 | 45 | |
| 20260505234607 | 81 | 58 | 1.0 | 5.0 | 0.00 | 0.00 | 0.00 | 44 | |
| 20260505233054 | 82 | 66 | 2.0 | 6.0 | 0.00 | 0.00 | 0.00 | 42 | |
| 20260505231607 | 84 | 245 | 1.0 | 4.0 | 0.00 | 0.00 | 0.00 | 40 | |
| 20260505230057 | 86 | 119 | 1.0 | 6.0 | 0.00 | 0.00 | 0.00 | 38 | |
| 20260505224600 | 87 | 354 | 1.0 | 3.0 | 0.00 | 0.00 | 0.00 | 37 | |
| 20260505223001 | 88 | 256 | 1.0 | 4.0 | 0.00 | 0.00 | 0.00 | 35 | |
| 20260505221503 | 89 | 217 | 1.0 | 5.0 | 0.00 | 0.00 | 0.00 | 34 | |
| 20260505220005 | 90 | 73 | 1.0 | 6.0 | 0.00 | 0.00 | 0.00 | 31 | |
| 20260505214513 | 92 | 213 | 1.0 | 3.0 | 0.00 | 0.00 | 0.00 | 32 | |
| 20260505213008 | 92 | 293 | 1.0 | 6.0 | 0.00 | 0.00 | 0.00 | 32 | |
| 20260505211510 | 92 | 252 | 2.0 | 7.0 | 0.00 | 0.00 | 0.00 | 32 | |
| 20260505210007 | 92 | 268 | 2.0 | 5.0 | 0.00 | 0.00 | 0.00 | 36 | 720.7 |
| 20260505204510 | 91 | 265 | 2.0 | 5.0 | 0.00 | 0.00 | 0.00 | 37 | 720.7 |
| 20260505203009 | 90 | 224 | 2.0 | 7.0 | 0.00 | 0.00 | 0.00 | 38 | 720.7 |